Akoren, Turkey

9:54 AM +03 on February 21, 2017 (GMT +0300)
Corlu Air Base

Weather History for LTBU - November, 2012

Change the Weather History Date:

Friday, November 2, 2012

  Actual Average (LTBA) Record (LTBA)
Temperature  
Mean Temperature 66 °F -  
Max Temperature 73 °F 60 °F 76 °F (2012)
Min Temperature 59 °F 50 °F 39 °F (2016)
Cooling Degree Days 2    
Growing Degree Days 16 (Base 50)    
Moisture  
Dew Point 60 °F    
Average Humidity 89    
Maximum Humidity 100    
Minimum Humidity 65    
Precipitation  
Precipitation 0.00 in - - ()
Sea Level Pressure  
Sea Level Pressure 29.83 in    
Wind  
Wind Speed 7 mph ()    
Max Wind Speed 12 mph    
Max Gust Speed -    
Visibility 5.7 miles    
Events Fog , Rain , Thunderstorm    
Averages and records for this station are not official NWS values.
T = Trace of Precipitation, MM = Missing Value Source: Averaged Metar Reports

Daily Weather History Graph

Daily Weather History Graph

Search for Another Location

Airport or City:

Trip Planner

Search our weather history database for the weather conditions in past years. The results will help you decide how hot, cold, wet, or windy it might be!

Date:

Astronomy

Nov. 02, 2012 Rise Set
Actual Time 6:40 AM EET 5:02 PM EET
Civil Twilight 6:12 AM EET 5:31 PM EET
Nautical Twilight 5:39 AM EET 6:03 PM EET
Astronomical Twilight 5:07 AM EET 6:35 PM EET
Moon 7:31 PM EET (11/2) 9:47 AM EET (11/2)
Length of Visible Light 11h 19m
Length of Day
10h 21m
Waning Gibbous, 89% of the Moon is Illuminated
Nov 2
Waning Gibbous
Nov 7
Last Quarter
Nov 14
New
Nov 20
First Quarter
Nov 28
Full

Hourly Weather History & Observations

Time (EET) Temp. Dew Point Humidity Pressure Visibility Wind Dir Wind Speed Gust Speed Precip Events Conditions
12:20 AM 62.6 °F 59.0 °F 88% 29.83 in 5.0 mi ESE 5.8 mph - N/A Rain Light Rain Showers
12:50 AM 62.6 °F 59.0 °F 88% 29.83 in 5.0 mi ESE 8.1 mph - N/A Rain Light Rain Showers
1:20 AM 60.8 °F 59.0 °F 94% 29.80 in 5.0 mi SE 9.2 mph - N/A Rain Light Rain Showers
1:50 AM 62.6 °F 59.0 °F 88% 29.83 in 5.0 mi SE 6.9 mph - N/A Rain Light Rain Showers
2:20 AM 62.6 °F 59.0 °F 88% 29.83 in 5.0 mi SSE 10.4 mph - N/A Rain Light Rain Showers
2:50 AM 62.6 °F 59.0 °F 88% 29.83 in 6.2 mi SSE 6.9 mph - N/A   Mostly Cloudy
3:20 AM 62.6 °F 59.0 °F 88% 29.83 in 5.0 mi South 8.1 mph - N/A Rain Light Rain Showers
3:50 AM 62.6 °F 59.0 °F 88% 29.83 in 5.0 mi SSE 6.9 mph - N/A Rain Light Rain Showers
4:20 AM 60.8 °F 59.0 °F 94% 29.80 in 6.2 mi SE 5.8 mph - N/A   Mostly Cloudy
4:50 AM 60.8 °F 59.0 °F 94% 29.80 in 6.2 mi ESE 6.9 mph - N/A   Mostly Cloudy
5:20 AM 60.8 °F 59.0 °F 94% 29.83 in 6.2 mi ESE 5.8 mph - N/A   Mostly Cloudy
5:50 AM 60.8 °F 59.0 °F 94% 29.80 in 6.2 mi SE 5.8 mph - N/A   Mostly Cloudy
6:20 AM 60.8 °F 59.0 °F 94% 29.83 in 6.2 mi ESE 6.9 mph - N/A   Mostly Cloudy
6:50 AM 60.8 °F 59.0 °F 94% 29.83 in 6.2 mi SE 5.8 mph - N/A   Mostly Cloudy
7:20 AM 60.8 °F 59.0 °F 94% 29.83 in 6.2 mi SE 8.1 mph - N/A   Mostly Cloudy
7:50 AM 62.6 °F 60.8 °F 94% 29.83 in 6.2 mi SE 6.9 mph - N/A   Mostly Cloudy
8:20 AM 62.6 °F 60.8 °F 94% 29.83 in 6.2 mi SE 6.9 mph - N/A   Mostly Cloudy
8:50 AM 64.4 °F 62.6 °F 94% 29.83 in 6.2 mi SE 8.1 mph - N/A   Mostly Cloudy
9:20 AM 66.2 °F 62.6 °F 88% 29.83 in 6.2 mi SE 5.8 mph - N/A   Mostly Cloudy
9:50 AM 68.0 °F 62.6 °F 83% 29.83 in 6.2 mi SE 9.2 mph - N/A   Mostly Cloudy
10:20 AM 68.0 °F 60.8 °F 78% 29.83 in 6.2 mi South 8.1 mph - N/A   Mostly Cloudy
10:50 AM 69.8 °F 62.6 °F 78% 29.83 in 6.2 mi South 8.1 mph - N/A   Mostly Cloudy
11:20 AM 71.6 °F 60.8 °F 69% 29.83 in 6.2 mi South 8.1 mph - N/A   Scattered Clouds
11:50 AM 71.6 °F 62.6 °F 73% 29.83 in 6.2 mi South 8.1 mph - N/A   Mostly Cloudy
12:20 PM 73.4 °F 60.8 °F 65% 29.83 in 6.2 mi SSW 9.2 mph - N/A   Scattered Clouds
12:50 PM 73.4 °F 60.8 °F 65% 29.80 in 6.2 mi SSW 11.5 mph - N/A   Scattered Clouds
1:20 PM 71.6 °F 60.8 °F 69% 29.80 in 6.2 mi SSW 10.4 mph - N/A   Mostly Cloudy
1:50 PM 69.8 °F 60.8 °F 73% 29.80 in 6.2 mi SSW 8.1 mph - N/A   Mostly Cloudy
2:20 PM 68.0 °F 60.8 °F 78% 29.83 in 5.0 mi SSW 8.1 mph - N/A Rain , Thunderstorm Thunderstorms and Rain
2:50 PM 66.2 °F 62.6 °F 88% 29.80 in 5.0 mi SSW 4.6 mph - N/A   Mostly Cloudy
3:20 PM 66.2 °F 62.6 °F 88% 29.80 in 6.2 mi Variable 3.5 mph - N/A   Mostly Cloudy
3:50 PM 66.2 °F 62.6 °F 88% 29.80 in 5.0 mi South 4.6 mph - N/A Rain , Thunderstorm Thunderstorms and Rain
4:20 PM 66.2 °F 62.6 °F 88% 29.83 in 5.0 mi South 9.2 mph - N/A   Mostly Cloudy
4:50 PM 64.4 °F 60.8 °F 88% 29.83 in 5.0 mi South 11.5 mph - N/A Rain , Thunderstorm Thunderstorms and Rain
5:20 PM 62.6 °F 60.8 °F 94% 29.83 in 5.0 mi South 6.9 mph - N/A   Mostly Cloudy
5:50 PM 62.6 °F 60.8 °F 94% 29.83 in 6.2 mi SSE 8.1 mph - N/A   Mostly Cloudy
6:20 PM 62.6 °F 60.8 °F 94% 29.83 in 6.2 mi SE 8.1 mph - N/A   Mostly Cloudy
6:50 PM 62.6 °F 60.8 °F 94% 29.83 in 6.2 mi SE 8.1 mph - N/A   Mostly Cloudy
7:20 PM 62.6 °F 60.8 °F 94% 29.86 in 6.2 mi SSE 4.6 mph - N/A   Scattered Clouds
7:50 PM 60.8 °F 60.8 °F 100% 29.86 in 6.2 mi Variable 2.3 mph - N/A   Scattered Clouds
8:20 PM 60.8 °F 60.8 °F 100% 29.86 in 6.2 mi SE 4.6 mph - N/A   Scattered Clouds
8:50 PM 62.6 °F 60.8 °F 94% 29.86 in 6.2 mi South 5.8 mph - N/A   Scattered Clouds
9:20 PM 62.6 °F 60.8 °F 94% 29.86 in 6.2 mi South 6.9 mph - N/A   Scattered Clouds
9:50 PM 60.8 °F 60.8 °F 100% 29.86 in 6.2 mi Variable 3.5 mph - N/A   Scattered Clouds
10:20 PM 60.8 °F 59.0 °F 94% 29.86 in 6.2 mi Variable 1.2 mph - N/A   Scattered Clouds
10:50 PM 60.8 °F 60.8 °F 100% 29.89 in 6.2 mi WSW 4.6 mph - N/A   Scattered Clouds
11:20 PM 60.8 °F 60.8 °F 100% 29.89 in 2.5 mi WSW 4.6 mph - N/A   Mostly Cloudy
11:50 PM 59.0 °F 59.0 °F 100% 29.89 in 1.0 mi WSW 5.8 mph - N/A Fog Patches of Fog